Location: Newark
(12.0500°N, 61.7500°W)
Time: 20:43:22
(UTC+00:00)

Envisat - Pass Details

Date: 01 February 2020
Orbit: 764 x 766 km, 98.1° (Epoch: 19 February)

Event Time Altitude Azimuth Distance (km) Brightness Sun altitude
Rises 22:58:53 0° 192° (SSW) 3,222 6.6 -12.5°
Reaches altitude 10° 23:01:30 10° 204° (SSW) 2,296 6.0 -13.1°
Maximum altitude 23:05:41 26° 260° (W) 1,462 5.4 -14.1°
Drops below altitude 10° 23:09:53 10° 316° (NW) 2,296 5.9 -15.1°
Sets 23:12:32 0° 329° (NNW) 3,222 6.5 -15.7°
